QPF
0.00 0.00 0.00 0.00 0.00 0.00 0.00 0.00 0.00 0.00 0.00 0.00 0.00 0.01 0.01 0.01 0.01 0.02 0.03 0.04 0.02 0.02 0.02 0.02 0.02 0.01 0.01 0.02 0.02 0.02 0.02 0.03 0.02 0.01 0.01 0.01 0.02 0.02 0.02 0.02 0.02 0.04 0.05 0.05
0.00 0.00 0.00 0.00 0.00 0.00 0.00 0.00 0.00 0.00 0.00 0.00 0.00 0.00 0.01 0.01 0.01 0.01 0.02 0.02 0.02 0.01 0.01 0.01 0.01 0.01 0.01 0.01 0.02 0.02 0.03 0.04 0.03 0.01 0.01 0.01 0.01 0.00 0.00 0.01 0.02 0.03 0.03 0.04
0.00 0.00 0.00 0.00 0.00 0.00 0.00 0.00 0.00 0.00 0.00 0.00 0.00 0.00 0.00 0.01 0.01 0.01 0.01 0.02 0.01 0.01 0.01 0.01 0.01 0.01 0.01 0.01 0.02 0.03 0.04 0.06 0.04 0.02 0.02 0.02 0.01 0.00 0.00 0.01 0.01 0.02 0.03 0.07
0.00 0.00 0.00 0.00 0.00 0.00 0.00 0.00 0.00 0.00 0.00 0.00 0.00 0.00 0.01 0.01 0.01 0.02 0.02 0.02 0.01 0.01 0.01 0.01 0.02 0.02 0.02 0.02 0.02 0.02 0.03 0.06 0.07 0.05 0.03 0.02 0.01 0.01 0.01 0.01 0.02 0.02 0.03 0.05
0.00 0.00 0.00 0.00 0.00 0.00 0.00 0.00 0.00 0.00 0.00 0.00 0.00 0.01 0.01 0.01 0.02 0.03 0.03 0.02 0.01 0.01 0.01 0.02 0.02 0.02 0.02 0.03 0.03 0.03 0.05 0.07 0.08 0.07 0.04 0.02 0.01 0.01 0.02 0.04 0.05 0.07 0.07 0.06
0.00 0.00 0.00 0.00 0.00 0.00 0.00 0.00 0.00 0.00 0.00 0.00 0.00 0.00 0.01 0.01 0.01 0.02 0.03 0.04 0.04 0.02 0.02 0.02 0.02 0.02 0.02 0.03 0.04 0.05 0.06 0.08 0.09 0.07 0.05 0.03 0.02 0.03 0.04 0.05 0.07 0.07 0.07 0.07
0.00 0.00 0.00 0.00 0.00 0.00 0.00 0.00 0.00 0.00 0.01 0.01 0.01 0.00 0.01 0.01 0.01 0.02 0.03 0.04 0.04 0.05 0.04 0.02 0.02 0.03 0.03 0.03 0.05 0.06 0.07 0.08 0.07 0.05 0.03 0.02 0.02 0.02 0.02 0.03 0.04 0.04 0.04 0.04
0.00 0.00 0.00 0.00 0.00 0.00 0.00 0.00 0.01 0.01 0.01 0.01 0.01 0.01 0.01 0.01 0.01 0.02 0.02 0.03 0.03 0.03 0.03 0.02 0.02 0.03 0.02 0.03 0.05 0.08 0.10 0.08 0.05 0.03 0.01 0.01 0.02 0.01 0.01 0.02 0.03 0.03 0.03 0.02
0.00 0.00 0.00 0.00 0.00 0.00 0.00 0.00 0.01 0.02 0.02 0.02 0.01 0.01 0.01 0.01 0.01 0.01 0.01 0.01 0.01 0.01 0.01 0.01 0.01 0.02 0.03 0.03 0.05 0.08 0.09 0.07 0.04 0.03 0.01 0.01 0.01 0.01 0.01 0.02 0.02 0.02 0.02 0.01
0.01 0.01 0.01 0.00 0.01 0.01 0.01 0.01 0.02 0.02 0.01 0.01 0.01 0.01 0.01 0.01 0.01 0.01 0.01 0.01 0.01 0.01 0.01 0.01 0.01 0.01 0.01 0.02 0.03 0.04 0.07 0.09 0.08 0.06 0.03 0.02 0.01 0.01 0.01 0.01 0.01 0.02 0.04 0.03
0.02 0.02 0.02 0.02 0.02 0.01 0.02 0.02 0.02 0.02 0.02 0.02 0.01 0.01 0.01 0.01 0.01 0.01 0.00 0.01 0.01 0.01 0.01 0.01 0.02 0.02 0.02 0.03 0.03 0.04 0.07 0.11 0.12 0.11 0.08 0.04 0.02 0.01 0.01 0.00 0.01 0.01 0.03 0.04
0.02 0.03 0.03 0.03 0.03 0.04 0.03 0.03 0.04 0.06 0.04 0.03 0.02 0.01 0.01 0.01 0.01 0.01 0.01 0.02 0.01 0.01 0.01 0.01 0.02 0.03 0.03 0.04 0.05 0.05 0.06 0.07 0.08 0.08 0.06 0.03 0.02 0.01 0.01 0.01 0.01 0.01 0.01 0.01
0.02 0.03 0.03 0.04 0.05 0.07 0.07 0.06 0.05 0.05 0.03 0.03 0.03 0.03 0.02 0.02 0.02 0.02 0.02 0.02 0.02 0.01 0.02 0.02 0.03 0.05 0.04 0.05 0.06 0.07 0.06 0.06 0.05 0.03 0.03 0.03 0.02 0.01 0.01 0.01 0.00 0.00 0.00 0.01
0.04 0.04 0.05 0.05 0.06 0.08 0.09 0.09 0.08 0.08 0.07 0.05 0.04 0.04 0.04 0.03 0.03 0.03 0.03 0.02 0.02 0.02 0.03 0.04 0.04 0.05 0.06 0.06 0.06 0.06 0.06 0.05 0.04 0.02 0.02 0.02 0.02 0.01 0.01 0.01 0.00 0.00 0.00 0.01
0.05 0.05 0.05 0.06 0.09 0.10 0.09 0.10 0.11 0.12 0.12 0.11 0.08 0.07 0.06 0.05 0.05 0.04 0.03 0.03 0.03 0.02 0.03 0.03 0.04 0.03 0.05 0.07 0.08 0.09 0.09 0.10 0.08 0.05 0.04 0.03 0.02 0.02 0.01 0.01 0.01 0.00 0.00 0.01
0.06 0.05 0.05 0.06 0.07 0.09 0.09 0.09 0.08 0.08 0.10 0.09 0.07 0.07 0.07 0.07 0.08 0.08 0.07 0.06 0.05 0.05 0.04 0.03 0.03 0.04 0.06 0.08 0.07 0.07 0.07 0.10 0.08 0.07 0.06 0.05 0.05 0.03 0.02 0.01 0.01 0.01 0.00 0.00
0.06 0.06 0.06 0.06 0.05 0.05 0.08 0.08 0.07 0.07 0.08 0.11 0.08 0.06 0.06 0.06 0.07 0.07 0.07 0.06 0.05 0.04 0.04 0.03 0.02 0.03 0.05 0.06 0.07 0.07 0.06 0.05 0.06 0.05 0.04 0.06 0.06 0.05 0.04 0.03 0.02 0.02 0.01 0.01
0.05 0.05 0.05 0.06 0.06 0.04 0.03 0.04 0.06 0.06 0.07 0.09 0.08 0.08 0.08 0.07 0.06 0.06 0.06 0.05 0.04 0.03 0.04 0.03 0.02 0.02 0.03 0.05 0.06 0.06 0.05 0.03 0.04 0.04 0.03 0.03 0.04 0.04 0.05 0.05 0.05 0.04 0.03 0.02
0.04 0.04 0.04 0.04 0.06 0.05 0.03 0.03 0.03 0.03 0.04 0.05 0.06 0.06 0.08 0.08 0.07 0.07 0.06 0.06 0.07 0.04 0.03 0.02 0.02 0.02 0.02 0.03 0.03 0.04 0.04 0.04 0.04 0.04 0.04 0.04 0.04 0.05 0.05 0.05 0.05 0.06 0.05 0.04
0.03 0.04 0.05 0.05 0.04 0.05 0.04 0.04 0.04 0.03 0.02 0.02 0.02 0.02 0.03 0.05 0.08 0.08 0.08 0.07 0.05 0.03 0.02 0.01 0.02 0.02 0.02 0.02 0.03 0.03 0.04 0.06 0.05 0.04 0.04 0.04 0.04 0.04 0.04 0.05 0.04 0.04 0.04 0.03
0.03 0.04 0.04 0.06 0.06 0.04 0.04 0.05 0.08 0.06 0.02 0.02 0.01 0.01 0.02 0.03 0.05 0.09 0.08 0.06 0.04 0.03 0.02 0.02 0.02 0.03 0.02 0.02 0.02 0.02 0.03 0.04 0.05 0.05 0.06 0.06 0.05 0.04 0.03 0.03 0.03 0.02 0.02 0.01
0.04 0.04 0.05 0.06 0.06 0.05 0.06 0.07 0.07 0.05 0.02 0.02 0.02 0.02 0.03 0.04 0.04 0.05 0.05 0.04 0.04 0.04 0.03 0.03 0.02 0.02 0.03 0.03 0.02 0.02 0.01 0.02 0.02 0.03 0.04 0.04 0.04 0.03 0.03 0.02 0.02 0.02 0.01 0.01
0.04 0.05 0.05 0.06 0.07 0.06 0.05 0.05 0.06 0.04 0.02 0.03 0.05 0.05 0.04 0.03 0.03 0.03 0.04 0.04 0.05 0.05 0.04 0.03 0.03 0.02 0.02 0.03 0.02 0.01 0.01 0.01 0.01 0.02 0.03 0.03 0.04 0.04 0.04 0.03 0.02 0.02 0.01 0.01
0.06 0.05 0.06 0.07 0.08 0.06 0.04 0.03 0.05 0.05 0.05 0.06 0.06 0.04 0.03 0.03 0.03 0.04 0.05 0.07 0.06 0.05 0.03 0.03 0.03 0.02 0.02 0.02 0.01 0.01 0.01 0.01 0.01 0.02 0.03 0.03 0.03 0.03 0.04 0.03 0.02 0.02 0.02 0.02
0.05 0.04 0.05 0.06 0.07 0.06 0.03 0.03 0.04 0.05 0.06 0.06 0.05 0.05 0.05 0.06 0.06 0.07 0.08 0.07 0.04 0.03 0.03 0.03 0.03 0.02 0.01 0.01 0.01 0.02 0.02 0.03 0.03 0.03 0.03 0.03 0.02 0.02 0.02 0.02 0.02 0.02 0.01 0.01
0.03 0.03 0.04 0.04 0.04 0.03 0.03 0.03 0.05 0.06 0.07 0.06 0.05 0.04 0.05 0.05 0.05 0.06 0.06 0.06 0.05 0.04 0.03 0.02 0.01 0.01 0.01 0.01 0.02 0.03 0.03 0.04 0.04 0.04 0.03 0.03 0.03 0.02 0.01 0.01 0.02 0.02 0.02 0.01
0.02 0.03 0.04 0.04 0.04 0.03 0.03 0.04 0.05 0.06 0.06 0.06 0.07 0.06 0.04 0.04 0.04 0.03 0.03 0.04 0.05 0.05 0.04 0.03 0.02 0.02 0.02 0.02 0.02 0.03 0.04 0.05 0.05 0.04 0.03 0.03 0.03 0.03 0.02 0.02 0.02 0.01 0.01 0.01
MSLP
1015.76 1016.32 1016.90 1017.47 1018.02 1018.47 1018.78 1018.89 1018.78 1018.44 1017.91 1017.25 1016.53 1015.84 1015.24 1014.79 1014.50 1014.36 1014.33 1014.37 1014.42 1014.45 1014.44 1014.41 1014.38 1014.39 1014.48 1014.67 1014.98 1015.40 1015.90 1016.43 1016.97 1017.46 1017.87 1018.20 1018.45 1018.62 1018.74 1018.83 1018.90 1018.95 1018.97 1018.98
1015.86 1016.39 1016.88 1017.33 1017.72 1018.01 1018.19 1018.23 1018.12 1017.86 1017.49 1017.03 1016.54 1016.07 1015.65 1015.32 1015.08 1014.91 1014.79 1014.70 1014.60 1014.50 1014.39 1014.29 1014.24 1014.27 1014.41 1014.67 1015.06 1015.55 1016.10 1016.69 1017.25 1017.75 1018.17 1018.50 1018.74 1018.91 1019.03 1019.11 1019.17 1019.21 1019.24 1019.25
1016.17 1016.67 1017.08 1017.42 1017.67 1017.83 1017.91 1017.90 1017.79 1017.61 1017.35 1017.05 1016.73 1016.41 1016.12 1015.85 1015.61 1015.38 1015.16 1014.94 1014.71 1014.48 1014.28 1014.13 1014.06 1014.10 1014.28 1014.60 1015.05 1015.59 1016.19 1016.80 1017.38 1017.89 1018.32 1018.65 1018.90 1019.08 1019.20 1019.29 1019.36 1019.41 1019.45 1019.46
1016.71 1017.16 1017.49 1017.73 1017.87 1017.93 1017.93 1017.87 1017.76 1017.62 1017.44 1017.25 1017.03 1016.81 1016.58 1016.33 1016.06 1015.77 1015.45 1015.11 1014.77 1014.44 1014.15 1013.95 1013.86 1013.91 1014.11 1014.46 1014.93 1015.49 1016.10 1016.72 1017.30 1017.82 1018.26 1018.61 1018.88 1019.09 1019.24 1019.37 1019.46 1019.54 1019.59 1019.63
1017.43 1017.80 1018.05 1018.18 1018.23 1018.21 1018.14 1018.04 1017.92 1017.80 1017.67 1017.53 1017.38 1017.20 1016.99 1016.74 1016.43 1016.08 1015.68 1015.26 1014.83 1014.43 1014.09 1013.85 1013.73 1013.77 1013.96 1014.29 1014.75 1015.29 1015.87 1016.47 1017.03 1017.55 1018.00 1018.37 1018.68 1018.94 1019.15 1019.32 1019.47 1019.59 1019.68 1019.74
1018.18 1018.47 1018.62 1018.67 1018.63 1018.54 1018.41 1018.28 1018.15 1018.04 1017.93 1017.82 1017.69 1017.54 1017.33 1017.07 1016.74 1016.35 1015.91 1015.43 1014.96 1014.52 1014.15 1013.88 1013.74 1013.74 1013.88 1014.17 1014.56 1015.03 1015.56 1016.10 1016.62 1017.12 1017.57 1017.97 1018.33 1018.65 1018.93 1019.17 1019.39 1019.57 1019.71 1019.81
1018.85 1019.04 1019.10 1019.06 1018.96 1018.81 1018.65 1018.49 1018.36 1018.25 1018.15 1018.06 1017.95 1017.81 1017.61 1017.35 1017.02 1016.63 1016.18 1015.71 1015.23 1014.78 1014.40 1014.11 1013.93 1013.88 1013.95 1014.14 1014.44 1014.81 1015.23 1015.68 1016.14 1016.60 1017.05 1017.47 1017.88 1018.26 1018.62 1018.94 1019.23 1019.48 1019.68 1019.82
1019.33 1019.41 1019.39 1019.28 1019.13 1018.95 1018.78 1018.62 1018.50 1018.40 1018.32 1018.24 1018.16 1018.03 1017.86 1017.63 1017.33 1016.96 1016.55 1016.11 1015.66 1015.23 1014.85 1014.55 1014.33 1014.21 1014.19 1014.26 1014.43 1014.66 1014.96 1015.30 1015.68 1016.08 1016.51 1016.94 1017.38 1017.82 1018.25 1018.65 1019.01 1019.33 1019.58 1019.78
1019.56 1019.56 1019.47 1019.32 1019.15 1018.97 1018.81 1018.67 1018.57 1018.50 1018.46 1018.41 1018.35 1018.26 1018.13 1017.93 1017.68 1017.37 1017.02 1016.63 1016.24 1015.85 1015.49 1015.17 1014.91 1014.71 1014.59 1014.53 1014.55 1014.64 1014.80 1015.02 1015.30 1015.63 1016.02 1016.45 1016.91 1017.39 1017.86 1018.32 1018.74 1019.11 1019.43 1019.67
1019.59 1019.52 1019.39 1019.23 1019.07 1018.92 1018.79 1018.70 1018.65 1018.63 1018.62 1018.61 1018.59 1018.54 1018.44 1018.30 1018.10 1017.86 1017.57 1017.25 1016.92 1016.57 1016.23 1015.90 1015.60 1015.33 1015.10 1014.92 1014.80 1014.74 1014.75 1014.85 1015.02 1015.28 1015.62 1016.03 1016.49 1016.98 1017.48 1017.97 1018.44 1018.85 1019.20 1019.49
1019.49 1019.39 1019.25 1019.11 1018.99 1018.89 1018.83 1018.80 1018.80 1018.83 1018.86 1018.89 1018.90 1018.87 1018.81 1018.71 1018.56 1018.37 1018.15 1017.89 1017.60 1017.29 1016.97 1016.63 1016.29 1015.96 1015.64 1015.35 1015.10 1014.91 1014.80 1014.78 1014.86 1015.04 1015.32 1015.69 1016.13 1016.61 1017.12 1017.62 1018.10 1018.53 1018.91 1019.24
1019.39 1019.29 1019.18 1019.08 1019.02 1018.99 1019.00 1019.04 1019.10 1019.16 1019.23 1019.27 1019.29 1019.28 1019.23 1019.14 1019.01 1018.86 1018.67 1018.45 1018.19 1017.91 1017.60 1017.25 1016.88 1016.50 1016.11 1015.73 1015.38 1015.10 1014.89 1014.77 1014.77 1014.87 1015.09 1015.42 1015.82 1016.27 1016.76 1017.25 1017.72 1018.16 1018.55 1018.89
1019.40 1019.32 1019.26 1019.22 1019.22 1019.27 1019.34 1019.44 1019.54 1019.63 1019.70 1019.75 1019.75 1019.71 1019.64 1019.53 1019.40 1019.24 1019.06 1018.85 1018.61 1018.34 1018.02 1017.67 1017.28 1016.86 1016.43 1015.99 1015.58 1015.22 1014.94 1014.75 1014.68 1014.72 1014.89 1015.16 1015.51 1015.93 1016.39 1016.85 1017.30 1017.73 1018.12 1018.47
1019.57 1019.54 1019.53 1019.56 1019.63 1019.74 1019.87 1020.00 1020.11 1020.20 1020.25 1020.26 1020.21 1020.12 1020.00 1019.84 1019.67 1019.48 1019.27 1019.05 1018.80 1018.52 1018.20 1017.84 1017.44 1017.00 1016.54 1016.07 1015.62 1015.21 1014.88 1014.65 1014.53 1014.52 1014.64 1014.86 1015.17 1015.54 1015.95 1016.38 1016.81 1017.22 1017.59 1017.94
1019.92 1019.94 1019.99 1020.08 1020.21 1020.36 1020.51 1020.65 1020.75 1020.81 1020.81 1020.75 1020.63 1020.46 1020.26 1020.03 1019.79 1019.55 1019.29 1019.04 1018.76 1018.47 1018.14 1017.77 1017.35 1016.90 1016.42 1015.93 1015.46 1015.04 1014.68 1014.41 1014.25 1014.20 1014.27 1014.45 1014.71 1015.05 1015.42 1015.82 1016.22 1016.61 1016.98 1017.32
1020.40 1020.47 1020.57 1020.71 1020.87 1021.04 1021.19 1021.31 1021.38 1021.38 1021.31 1021.17 1020.96 1020.70 1020.41 1020.10 1019.78 1019.46 1019.15 1018.85 1018.54 1018.22 1017.86 1017.48 1017.05 1016.59 1016.10 1015.60 1015.12 1014.67 1014.28 1013.99 1013.79 1013.71 1013.74 1013.88 1014.11 1014.40 1014.75 1015.13 1015.51 1015.89 1016.25 1016.60
1020.95 1021.06 1021.20 1021.37 1021.54 1021.71 1021.84 1021.92 1021.93 1021.86 1021.71 1021.48 1021.18 1020.83 1020.45 1020.05 1019.66 1019.27 1018.90 1018.55 1018.20 1017.84 1017.46 1017.05 1016.60 1016.12 1015.62 1015.10 1014.59 1014.12 1013.70 1013.37 1013.14 1013.02 1013.01 1013.11 1013.31 1013.58 1013.91 1014.28 1014.67 1015.05 1015.43 1015.79
1021.49 1021.64 1021.81 1021.98 1022.15 1022.30 1022.39 1022.42 1022.37 1022.23 1022.00 1021.68 1021.30 1020.87 1020.41 1019.94 1019.48 1019.04 1018.62 1018.21 1017.82 1017.42 1017.00 1016.56 1016.08 1015.57 1015.03 1014.47 1013.93 1013.41 1012.96 1012.58 1012.30 1012.14 1012.09 1012.16 1012.33 1012.59 1012.92 1013.29 1013.70 1014.11 1014.52 1014.91
1021.98 1022.15 1022.33 1022.50 1022.66 1022.77 1022.82 1022.79 1022.68 1022.47 1022.18 1021.80 1021.35 1020.86 1020.35 1019.83 1019.32 1018.83 1018.36 1017.91 1017.47 1017.03 1016.57 1016.08 1015.55 1014.99 1014.40 1013.79 1013.19 1012.62 1012.10 1011.66 1011.33 1011.11 1011.02 1011.05 1011.20 1011.46 1011.80 1012.20 1012.63 1013.09 1013.55 1013.99
1022.40 1022.58 1022.76 1022.92 1023.04 1023.12 1023.13 1023.05 1022.89 1022.63 1022.29 1021.87 1021.38 1020.86 1020.31 1019.76 1019.22 1018.70 1018.19 1017.70 1017.22 1016.72 1016.21 1015.66 1015.08 1014.46 1013.80 1013.12 1012.45 1011.81 1011.22 1010.71 1010.31 1010.03 1009.89 1009.89 1010.02 1010.28 1010.63 1011.06 1011.55 1012.06 1012.59 1013.10
1022.74 1022.92 1023.09 1023.23 1023.33 1023.37 1023.34 1023.23 1023.03 1022.74 1022.37 1021.93 1021.43 1020.89 1020.33 1019.76 1019.20 1018.66 1018.13 1017.60 1017.07 1016.53 1015.96 1015.36 1014.71 1014.02 1013.29 1012.54 1011.79 1011.07 1010.41 1009.83 1009.36 1009.02 1008.84 1008.80 1008.91 1009.16 1009.52 1009.99 1010.52 1011.10 1011.70 1012.29
1023.01 1023.19 1023.34 1023.46 1023.53 1023.55 1023.49 1023.35 1023.13 1022.83 1022.45 1022.00 1021.50 1020.96 1020.40 1019.84 1019.27 1018.71 1018.16 1017.61 1017.04 1016.46 1015.84 1015.18 1014.47 1013.72 1012.93 1012.11 1011.30 1010.51 1009.78 1009.14 1008.61 1008.22 1007.98 1007.90 1007.99 1008.23 1008.61 1009.09 1009.67 1010.30 1010.95 1011.62
1023.22 1023.37 1023.51 1023.61 1023.66 1023.65 1023.57 1023.42 1023.19 1022.89 1022.51 1022.08 1021.59 1021.07 1020.52 1019.97 1019.40 1018.84 1018.28 1017.70 1017.11 1016.49 1015.84 1015.14 1014.39 1013.59 1012.76 1011.90 1011.04 1010.21 1009.43 1008.74 1008.17 1007.73 1007.45 1007.35 1007.41 1007.63 1008.00 1008.49 1009.08 1009.73 1010.43 1011.14
1023.34 1023.48 1023.59 1023.66 1023.69 1023.67 1023.58 1023.43 1023.20 1022.91 1022.55 1022.13 1021.67 1021.17 1020.65 1020.12 1019.57 1019.01 1018.45 1017.87 1017.27 1016.64 1015.97 1015.25 1014.48 1013.67 1012.83 1011.96 1011.08 1010.24 1009.45 1008.73 1008.13 1007.67 1007.36 1007.22 1007.25 1007.44 1007.78 1008.26 1008.83 1009.48 1010.18 1010.89
1023.37 1023.48 1023.56 1023.61 1023.62 1023.59 1023.50 1023.35 1023.14 1022.86 1022.53 1022.15 1021.72 1021.25 1020.76 1020.25 1019.73 1019.19 1018.64 1018.08 1017.49 1016.87 1016.21 1015.51 1014.76 1013.97 1013.15 1012.30 1011.45 1010.63 1009.85 1009.15 1008.55 1008.08 1007.75 1007.58 1007.58 1007.73 1008.02 1008.45 1008.97 1009.58 1010.24 1010.92
1023.29 1023.36 1023.41 1023.44 1023.44 1023.40 1023.31 1023.17 1022.98 1022.73 1022.43 1022.08 1021.69 1021.27 1020.82 1020.35 1019.86 1019.36 1018.84 1018.31 1017.75 1017.17 1016.55 1015.90 1015.20 1014.47 1013.71 1012.92 1012.14 1011.37 1010.64 1009.98 1009.41 1008.95 1008.62 1008.43 1008.39 1008.48 1008.72 1009.07 1009.52 1010.04 1010.61 1011.21
1023.09 1023.13 1023.15 1023.16 1023.15 1023.10 1023.02 1022.90 1022.73 1022.51 1022.25 1021.94 1021.60 1021.22 1020.82 1020.40 1019.96 1019.51 1019.04 1018.56 1018.06 1017.53 1016.98 1016.40 1015.78 1015.14 1014.46 1013.77 1013.08 1012.40 1011.75 1011.16 1010.63 1010.20 1009.88 1009.68 1009.60 1009.65 1009.81 1010.07 1010.41 1010.82 1011.28 1011.77
Thickness
5739 5752 5757 5761 5759 5754 5755 5750 5745 5753 5759 5778 5788 5793 5796 5797 5796 5793 5792 5791 5790 5787 5784 5782 5779 5775 5772 5768 5765 5762 5758 5753 5749 5746 5743 5740 5737 5734 5731 5728 5726 5723 5721 5719
5736 5747 5753 5754 5759 5758 5759 5758 5758 5762 5765 5785 5790 5791 5791 5792 5791 5789 5788 5788 5786 5784 5782 5779 5776 5772 5768 5765 5762 5758 5754 5749 5745 5741 5738 5734 5731 5729 5725 5723 5720 5718 5715 5713
5715 5737 5742 5734 5752 5757 5760 5763 5763 5759 5773 5784 5784 5786 5788 5790 5790 5789 5787 5786 5783 5781 5779 5776 5774 5770 5766 5762 5759 5754 5749 5745 5740 5737 5733 5729 5727 5723 5720 5717 5715 5712 5708 5706
5704 5718 5709 5737 5763 5766 5763 5767 5771 5775 5780 5783 5786 5788 5790 5792 5790 5787 5786 5783 5781 5779 5777 5774 5771 5767 5763 5759 5754 5750 5744 5739 5735 5732 5728 5724 5721 5717 5714 5711 5708 5705 5701 5698
5690 5697 5712 5739 5756 5759 5756 5758 5771 5772 5776 5779 5781 5781 5780 5788 5789 5787 5785 5782 5780 5778 5774 5771 5767 5763 5758 5753 5749 5745 5740 5735 5731 5727 5723 5719 5715 5711 5708 5704 5701 5697 5694 5691
5687 5693 5697 5729 5757 5765 5760 5747 5769 5771 5771 5773 5774 5762 5771 5785 5785 5783 5781 5779 5776 5773 5769 5765 5762 5759 5753 5748 5744 5740 5736 5731 5727 5723 5718 5714 5709 5705 5702 5698 5694 5691 5687 5684
5686 5692 5705 5736 5752 5757 5735 5743 5767 5769 5770 5769 5769 5774 5780 5782 5780 5778 5776 5774 5772 5768 5763 5761 5758 5754 5748 5744 5739 5736 5732 5727 5722 5717 5713 5708 5703 5699 5695 5692 5688 5684 5680 5676
5680 5687 5700 5737 5742 5739 5743 5758 5763 5765 5767 5767 5769 5772 5774 5774 5773 5771 5769 5767 5765 5761 5755 5754 5752 5748 5742 5738 5735 5731 5726 5721 5716 5712 5708 5703 5698 5693 5689 5686 5681 5677 5674 5670
5688 5695 5714 5726 5734 5742 5748 5752 5758 5761 5764 5764 5763 5764 5765 5765 5765 5764 5762 5760 5758 5754 5749 5746 5745 5743 5737 5733 5729 5725 5719 5714 5709 5705 5701 5697 5692 5687 5683 5679 5675 5671 5668 5664
5688 5702 5713 5722 5730 5738 5744 5748 5754 5757 5759 5760 5758 5758 5758 5757 5756 5755 5754 5753 5751 5748 5744 5740 5737 5735 5732 5728 5723 5718 5713 5707 5703 5698 5693 5688 5684 5680 5676 5672 5669 5666 5662 5658
5683 5696 5706 5716 5722 5730 5736 5742 5746 5750 5753 5753 5753 5751 5751 5749 5748 5747 5746 5745 5743 5740 5737 5734 5731 5727 5724 5721 5717 5711 5706 5701 5695 5690 5685 5679 5674 5670 5668 5665 5663 5660 5656 5653
5676 5689 5694 5703 5714 5722 5726 5730 5735 5738 5740 5743 5745 5744 5743 5741 5740 5738 5736 5736 5733 5730 5728 5725 5722 5719 5716 5713 5710 5705 5699 5693 5688 5682 5677 5672 5667 5661 5658 5657 5654 5652 5649 5645
5678 5687 5692 5699 5707 5713 5716 5721 5726 5729 5731 5732 5734 5735 5734 5732 5730 5729 5727 5726 5725 5722 5720 5717 5714 5710 5708 5705 5702 5698 5693 5687 5681 5676 5671 5666 5661 5657 5652 5647 5644 5642 5640 5637
5676 5681 5684 5691 5696 5703 5707 5711 5716 5719 5721 5723 5723 5723 5723 5722 5720 5718 5716 5715 5714 5713 5710 5708 5705 5702 5700 5697 5694 5690 5686 5681 5676 5670 5665 5660 5656 5651 5648 5643 5638 5633 5629 5627
5670 5675 5678 5683 5688 5693 5697 5700 5703 5705 5708 5709 5711 5711 5711 5710 5708 5707 5706 5705 5703 5702 5700 5698 5696 5693 5691 5689 5686 5682 5677 5672 5668 5663 5658 5653 5649 5644 5640 5635 5630 5626 5622 5618
5662 5666 5670 5673 5677 5682 5686 5690 5692 5693 5696 5698 5699 5700 5699 5698 5697 5697 5695 5694 5693 5691 5690 5688 5686 5685 5683 5681 5678 5674 5669 5665 5660 5655 5650 5645 5640 5636 5631 5627 5622 5619 5615 5611
5652 5654 5658 5662 5667 5672 5675 5679 5681 5684 5686 5687 5688 5689 5688 5688 5687 5685 5684 5683 5683 5682 5681 5680 5678 5677 5675 5673 5669 5666 5661 5656 5652 5647 5643 5638 5634 5629 5624 5619 5615 5611 5607 5603
5649 5653 5655 5658 5661 5663 5666 5670 5673 5676 5677 5678 5679 5678 5679 5679 5677 5676 5675 5675 5674 5672 5671 5670 5670 5669 5667 5664 5661 5657 5653 5648 5644 5640 5635 5631 5627 5622 5617 5612 5607 5603 5598 5594
5643 5646 5648 5651 5654 5656 5659 5661 5664 5666 5668 5669 5669 5669 5670 5669 5668 5667 5667 5666 5665 5663 5661 5661 5660 5660 5658 5655 5653 5649 5646 5641 5636 5632 5627 5623 5619 5614 5610 5605 5600 5595 5591 5586
5634 5637 5640 5642 5645 5648 5650 5654 5656 5657 5659 5660 5660 5660 5660 5660 5660 5659 5659 5658 5656 5656 5655 5654 5653 5651 5649 5647 5644 5641 5638 5634 5630 5625 5620 5616 5612 5607 5603 5598 5593 5589 5584 5580
5625 5628 5631 5633 5636 5639 5643 5646 5648 5649 5650 5651 5651 5652 5651 5651 5651 5651 5651 5649 5648 5648 5647 5646 5645 5643 5640 5637 5635 5633 5630 5626 5622 5618 5614 5609 5605 5600 5595 5591 5587 5583 5578 5573
5618 5621 5623 5626 5628 5631 5634 5637 5640 5641 5641 5642 5643 5643 5643 5642 5642 5641 5641 5641 5641 5639 5639 5638 5636 5634 5631 5629 5627 5624 5622 5619 5615 5611 5606 5602 5598 5594 5589 5585 5580 5576 5571 5567
5612 5615 5617 5619 5621 5624 5626 5629 5631 5633 5633 5634 5635 5635 5635 5634 5634 5633 5632 5632 5632 5631 5630 5629 5628 5625 5622 5621 5619 5616 5614 5611 5608 5604 5599 5596 5592 5588 5584 5579 5574 5570 5565 5560
5605 5608 5610 5612 5614 5617 5618 5620 5622 5624 5625 5626 5627 5627 5627 5626 5624 5624 5625 5624 5623 5622 5621 5619 5618 5616 5614 5612 5611 5608 5606 5604 5600 5596 5592 5589 5585 5581 5577 5573 5568 5564 5559 5555
5600 5602 5604 5606 5607 5609 5611 5613 5614 5615 5616 5617 5618 5619 5619 5619 5618 5617 5616 5615 5613 5613 5612 5610 5609 5608 5607 5605 5603 5601 5598 5596 5592 5589 5586 5582 5578 5575 5570 5566 5562 5558 5553 5549
5593 5595 5597 5599 5601 5602 5604 5606 5607 5608 5608 5609 5609 5610 5610 5610 5610 5609 5608 5606 5605 5604 5603 5602 5601 5600 5599 5597 5595 5593 5591 5588 5585 5582 5579 5576 5572 5568 5564 5560 5556 5552 5548 5544
5587 5588 5590 5592 5594 5596 5598 5599 5600 5601 5602 5603 5602 5602 5602 5602 5602 5601 5600 5599 5597 5596 5595 5594 5593 5592 5591 5589 5586 5584 5582 5580 5577 5574 5571 5568 5565 5561 5557 5553 5549 5545 5541 5538